Asheville, NC

5:35 AM EST on December 15, 2017 (GMT -0500)
Asheville Regional

Weather History for KAVL - September, 2013

Change the Weather History Date:

Sunday, September 29, 2013

  Actual Average Record
Temperature  
Mean Temperature 62 °F 62 °F  
Max Temperature 71 °F 73 °F 87 °F (1904)
Min Temperature 53 °F 51 °F 35 °F (1967)
Degree Days  
Heating Degree Days 3 4  
Month to date heating degree days 22 48  
Since 1 July heating degree days 27 50  
Cooling Degree Days 0 1  
Month to date cooling degree days 105 94  
Year to date cooling degree days 843 851  
Growing Degree Days 12 (Base 50)    
Moisture  
Dew Point 53 °F    
Average Humidity 73    
Maximum Humidity 93    
Minimum Humidity 53    
Precipitation  
Precipitation 0.00 in 0.12 in 4.40 in (1964)
Month to date precipitation 3.05 3.69  
Year to date precipitation 61.81 35.30  
Snow  
Snow 0.00 in 0.00 in 0.00 in ()
Month to date snowfall 0.0 0.0  
Since 1 July snowfall 0.0 0.0  
Since 1 September snowfall 0.0 0.0  
Snow Depth 0.00 in    
Sea Level Pressure  
Sea Level Pressure 30.13 in    
Wind  
Wind Speed 3 mph (SSE)    
Max Wind Speed 8 mph    
Max Gust Speed 13 mph    
Visibility 10 miles    
Events      
T = Trace of Precipitation, MM = Missing Value Source: NWS Daily Summary

Daily Weather History Graph

Daily Weather History Graph

Search for Another Location

Airport or City:

Trip Planner

Search our weather history database for the weather conditions in past years. The results will help you decide how hot, cold, wet, or windy it might be!

Date:

Astronomy

Sep. 29, 2013 Rise Set
Actual Time 7:23 AM EDT 7:16 PM EDT
Civil Twilight 6:58 AM EDT 7:41 PM EDT
Nautical Twilight 6:28 AM EDT 8:11 PM EDT
Astronomical Twilight 5:59 AM EDT 8:41 PM EDT
Moon 2:13 AM EDT (9/29) 4:03 PM EDT (9/29)
Length of Visible Light 12h 43m
Length of Day
11h 52m
Waning Crescent, 27% of the Moon is Illuminated
Sep 29
Waning Crescent
Oct 4
New
Oct 11
First Quarter
Oct 18
Full
Oct 26
Last Quarter

Hourly Weather History & Observations

Time (EDT) Temp. Dew Point Humidity Pressure Visibility Wind Dir Wind Speed Gust Speed Precip Events Conditions
12:21 AM 57.2 °F 51.8 °F 82% 30.23 in 10.0 mi South 3.5 mph - N/A   Overcast
12:54 AM 57.9 °F 51.1 °F 78% 30.18 in 10.0 mi Calm Calm - N/A   Overcast
1:21 AM 57.2 °F 51.8 °F 82% 30.23 in 10.0 mi Calm Calm - N/A   Overcast
1:54 AM 57.0 °F 51.1 °F 81% 30.19 in 10.0 mi Calm Calm - N/A   Overcast
2:54 AM 57.0 °F 51.1 °F 81% 30.18 in 10.0 mi Calm Calm - N/A   Overcast
3:54 AM 55.9 °F 51.1 °F 84% 30.16 in 10.0 mi Calm Calm - N/A   Overcast
4:54 AM 55.0 °F 52.0 °F 89% 30.15 in 10.0 mi Calm Calm - N/A   Overcast
5:54 AM 54.0 °F 52.0 °F 93% 30.16 in 10.0 mi Calm Calm - N/A   Overcast
6:54 AM 53.1 °F 51.1 °F 93% 30.18 in 10.0 mi Calm Calm - N/A   Partly Cloudy
7:54 AM 53.1 °F 51.1 °F 93% 30.17 in 10.0 mi Calm Calm - N/A   Overcast
8:54 AM 54.0 °F 51.1 °F 90% 30.18 in 10.0 mi Calm Calm - N/A   Mostly Cloudy
9:54 AM 57.0 °F 51.1 °F 81% 30.18 in 10.0 mi Calm Calm - N/A   Mostly Cloudy
10:54 AM 60.1 °F 51.1 °F 72% 30.16 in 10.0 mi Variable 3.5 mph - N/A   Mostly Cloudy
11:54 AM 62.1 °F 51.1 °F 67% 30.15 in 10.0 mi South 6.9 mph - N/A   Scattered Clouds
12:54 PM 66.0 °F 53.1 °F 63% 30.12 in 10.0 mi Variable 6.9 mph - N/A   Partly Cloudy
1:54 PM 68.0 °F 52.0 °F 56% 30.09 in 10.0 mi Variable 5.8 mph - N/A   Mostly Cloudy
2:54 PM 71.1 °F 53.1 °F 53% 30.05 in 10.0 mi WSW 4.6 mph - N/A   Partly Cloudy
3:54 PM 69.1 °F 51.1 °F 53% 30.04 in 10.0 mi Calm Calm - N/A   Mostly Cloudy
4:54 PM 70.0 °F 53.1 °F 55% 30.03 in 10.0 mi Variable 4.6 mph - N/A   Clear
5:54 PM 66.9 °F 54.0 °F 63% 30.04 in 10.0 mi SSE 6.9 mph - N/A   Clear
6:54 PM 64.0 °F 55.0 °F 73% 30.06 in 10.0 mi SSE 5.8 mph - N/A   Clear
7:54 PM 63.0 °F 55.0 °F 75% 30.07 in 10.0 mi SSE 3.5 mph - N/A   Mostly Cloudy
8:54 PM 62.1 °F 55.9 °F 80% 30.08 in 10.0 mi SSE 3.5 mph - N/A   Overcast
9:54 PM 60.1 °F 55.9 °F 86% 30.06 in 10.0 mi SSE 5.8 mph - N/A   Overcast
10:20 PM 60.8 °F 55.4 °F 82% 30.11 in 10.0 mi SSE 3.5 mph - N/A   Overcast
10:54 PM 60.1 °F 55.9 °F 86% 30.07 in 10.0 mi SSE 3.5 mph - N/A   Overcast
11:54 PM 60.1 °F 55.9 °F 86% 30.08 in 10.0 mi Calm Calm - N/A   Overcast